Miscellaneous Local Product
Issued by NWS Hastings, NE

Home | Current Version | Previous Version | Graphics & Text | Print | Product List | Glossary On
Versions: 1 2 3 4 5 6 7 8 9 10 11 12 13 14 15 16 17 18 19 20 21 22 23 24 25 26 27 28 29 30 31 32 33 34 35 36 37 38 39 40 41 42 43 44 45 46 47 48 49 50
000
AXUS43 KGID 241402
MISGRI

GID CWA HOURLY WEATHER ROUNDUP
NATIONAL WEATHER SERVICE HASTINGS NE
900 AM CDT SUN JUL 24 2016

NOTE: "FAIR" INDICATES FEW OR NO CLOUDS BELOW 12,000 FEET WITH NO
SIGNIFICANT WEATHER AND/OR OBSTRUCTIONS TO VISIBILITY.

...SOUTH CENTRAL NEBRASKA...

CITY           SKY/WX    TMP DP  RH WIND       PRES   REMARKS
GRAND ISLAND   MOSUNNY   75  62  64 NE8       30.02R
HASTINGS       MOSUNNY   76  63  64 E10       30.04R
KEARNEY        CLOUDY    73  63  68 E6        30.05R
ORD            CLOUDY    72  65  78 N7        30.02R
YORK           CLOUDY    75  64  69 NE7       29.99R
AURORA         CLOUDY    76  65  68 E7        30.01R
LEXINGTON      CLOUDY    71  62  74 CALM      30.06R
HOLDREGE       CLOUDY    73  65  75 E9        30.05R
HEBRON         CLOUDY    80  72  76 NE5       29.98R

...NEBRASKA PANHANDLE...

CITY           SKY/WX    TMP DP  RH WIND       PRES   REMARKS
CHADRON        CLOUDY    63  48  58 NE3       30.16R
ALLIANCE       PTSUNNY   65  59  81 E12       30.14S
SCOTTSBLUFF    CLOUDY    70  55  59 E10       30.09F
SIDNEY         CLOUDY    72  55  55 SE9       30.18R

...WESTERN AND NORTH CENTRAL NEBRASKA...

CITY           SKY/WX    TMP DP  RH WIND       PRES   REMARKS
VALENTINE      MOSUNNY   73  52  47 NE13      30.08R
AINSWORTH      CLOUDY    67  58  71 NE8       30.07R
ONEILL         SUNNY     73  61  64 N10       30.06R
BROKEN BOW     CLOUDY    71  63  75 E7        30.05R
IMPERIAL       MOSUNNY   70  59  68 N8        30.12R
NORTH PLATTE   CLOUDY    70  62  76 CALM      30.09R
MCCOOK         PTSUNNY   73  63  70 NE6       30.07R

...EASTERN NEBRASKA...

CITY           SKY/WX    TMP DP  RH WIND       PRES   REMARKS
NORFOLK        MOSUNNY   76  63  64 N3        29.99R
SO SIOUX CITY  SUNNY     81  64  56 N10       29.94R
TEKAMAH        MOSUNNY   79  69  71 NW7       29.95R
COLUMBUS       MOSUNNY   75  61  60 NE5       29.99R
ALBION         PTSUNNY   75  64  67 NE5       30.01R
OMAHA EPPLEY   CLOUDY    82  69  64 N10       29.92R
OFFUTT AFB     MOSUNNY   81  71  70 N7        29.93R
MILLARD        MOSUNNY   83  67  58 NE5       29.94R
LINCOLN        MOSUNNY   81  71  71 NE9       29.97R
NEBRASKA CITY  MOSUNNY   82  78  88 NE6       29.94R HX  90
BEATRICE       MOSUNNY   84  71  63 E9        29.97R
FALLS CITY     MOSUNNY   83  74  74 NW9       29.91R

...NORTHERN KANSAS...

CITY           SKY/WX    TMP DP  RH WIND       PRES   REMARKS
GOODLAND       CLOUDY    76  61  59 E15G22    30.08R
HILL CITY      CLOUDY    74  67  78 NE12      29.98R
NORTON         SUNNY     73  61  64 NE10      30.02S
SMITH CENTER   CLOUDY    72  70  94 NE8       30.00R
BELOIT         MOSUNNY   75  70  83 CALM      29.93F
HAYS           CLOUDY    77  63  61 NE10      29.95R
RUSSELL        PTSUNNY   78  69  73 E9        29.95R
CONCORDIA      LGT RAIN  75  69  81 NW5       29.96S
SALINA         CLOUDY    83  71  67 SE3       29.94R
TOPEKA           N/A     84  70  62 SW6       29.91R



USA.gov is the U.S. government's official web portal to all federal, state and local government web resources and services.